Location: Pensacola
(30.4142°N, 87.2155°W)
Time: 17:59:32
(UTC-05:00)

AO-27 - Pass Details

Date: 02 June 2024
Orbit: 783 x 797 km, 98.8° (Epoch: 21 June)

Event Time Altitude Azimuth Distance (km) Brightness Sun altitude
Exits shadow 22:11:32 22° 219° (SW) 1,659 9.2 -25.3°
Maximum altitude 22:13:50 31° 262° (W) 1,344 9.1 -25.7°
Drops below altitude 10° 22:18:26 10° 324° (NW) 2,352 11.1 -26.3°
Sets 22:21:00 0° 334° (NNW) 3,282 12.1 -26.6°
